Regional Weather Roundup
Issued by NWS

Home | Current Version | Previous Version | Text Only | Print | Product List | Glossary Off
Versions: 1 2 3 4 5 6 7 8 9 10 11 12 13 14 15 16 17 18 19 20 21 22 23 24 25 26 27 28 29 30 31 32 33 34 35 36 37 38 39 40 41 42 43 44 45 46 47 48 49 50

000
ASUS45 KBOI 011510
RWRID

IDAHO REGIONAL WEATHER ROUNDUP
NATIONAL WEATHER SERVICE BOISE ID
900 AM MDT WED JUL 01 2015

NOTE: "FAIR" INDICATES FEW OR NO CLOUDS BELOW 12000 FEET
WITH NO SIGNIFICANT WEATHER AND/OR OBSTRUCTIONS TO VISIBILITY

IDZ012-014-011600-
SOUTHWEST IDAHO


CITY           SKY/WX    TMP DP  RH WIND       PRES   REMARKS
BOISE          SUNNY     76  52  43 W5        30.02R
CALDWELL       SUNNY     79  48  34 W10       30.02S
MOUNTAIN HOME  MOSUNNY   82  49  32 NW16      30.02R
$$

IDZ016-017-011600-
SOUTHCENTRAL IDAHO


CITY           SKY/WX    TMP DP  RH WIND       PRES   REMARKS
BURLEY         SUNNY     77  55  46 W7        30.10R
JEROME         SUNNY     74  53  48 S5        30.10R
TWIN FALLS     SUNNY     85  48  27 W9        30.08R
$$

IDZ019>023-011600-
SOUTHEAST IDAHO


CITY           SKY/WX    TMP DP  RH WIND       PRES   REMARKS
IDAHO FALLS    MOSUNNY   68  60  75 W6        30.13S
POCATELLO      SUNNY     78  55  44 W9        30.13R
REXBURG        SUNNY     71  56  58 CALM      30.14S
$$

IDZ006-010-011-018-031-032-011600-
CENTRAL IDAHO MOUNTAINS


CITY           SKY/WX    TMP DP  RH WIND       PRES   REMARKS
MCCALL         SUNNY     69  52  54 CALM      30.15F
HAILEY         MOSUNNY   70  43  37 NW9       30.20R
STANLEY          N/A     61  41  47 CALM      30.29F
SALMON         SUNNY     68  54  60 NW3       30.11F
CHALLIS        SUNNY     70  47  43 E5        30.17F
$$

IDZ002-004-006-007-026-011600-
NORTHERN IDAHO


CITY           SKY/WX    TMP DP  RH WIND       PRES   REMARKS
LEWISTON       SUNNY     76  53  44 E7        29.99R
LOWELL           N/A     69  57  65 CALM      30.05S
COEUR D`ALENE  SUNNY     73  55  53 NE3       30.02R
MULLAN PASS    SUNNY     68  43  40 CALM      30.22S
$$


USA.gov is the U.S. government's official web portal to all federal, state and local government web resources and services.